THORAD AGENA D DEB, 4777

Orbit data source: Space-Track

THORAD AGENA D DEB, 4777 is space debris in SSO originally from a launch on Wed, 08 Apr 1970 UTC launched from the Air Force Western Test Range (AFWTR). Debris objects in space refer to the collection of defunct objects orbiting the Earth. Examples of debris include non-operational satellites, rocket bodies, and fragments generated from explosions, collisions, or faulty payload assembly.

Loading next visibility...
Identifier
4777, 1970-025DX
Orbit
SSO
Country
Flag of USUS
Related business
Manufacturer
Unknown
Mission
Spacecraft
Bus & Motor
Unknown
Mass
Unknown
Launch date (UTC)
1970-04-08 (56 years ago)
Launch vehicle
Unknown
Launch site
Air Force Western Test Range (AFWTR)
Object type
Payload
Rocket body
Debris
Shape & HBR
Unknown shape, 0.1 m
Radar Cross Section
Medium (>0.1 m² and <1 m²)

Expand to show TLE details & history
Last TLE update: 23 hours ago

TLE from 23 hours ago
0 THORAD AGENA D DEB
1  4777U 70025DX  26236.28649251  .00000489  00000-0  42337-3 0  9998
2  4777  99.9438 354.7560 0005610 285.5477 102.8387 13.91898279816516
Epoch: 2026-08-24T06:52Z
TLE epoch observation values (Epoch: 2026-08-24T06:52:32.952Z)
Latitude
28.02716°
Longitude
-86.27843°
Altitude
926.269 km
Speed
7.391 km/s
True Right ascension
23h 17m 43s
True Declination
27° 53' 17"
Sunlit
Object was in full shadow at epoch
Visualization orbit readout
Latitude
Unknown
Longitude
Unknown
Altitude
Unknown
Speed
Unknown
Apparent Right ascension
Unknown
Apparent Declination
Unknown
Sunlit
N/A
Visualization observer readout
Local Sidereal Time
21:10:51
Azimuth
Unknown
Elevation
Unknown
Doppler factor
Unknown
Orbital elements
Apogee altitude
923.338 km
Perigee altitude
915.151 km
Semi-major axis
7,297.382 km
Eccentricity
0.00056
Inclination
99.9438°
RAAN
354.756°
Arg. of periapsis
285.5477°
True anomaly
102.90137°
Mean anomaly
102.8387°
Eccentric anomaly
102.87004°
Mean motion
3.48171 °/min
Orbital period
103.4 mins
BSTAR
0.00042337
Loading maneuver chart data...
Computing Atmospheric mass density...

Documentation

Showing up to 5 results
|